Flag for Guadeloupe Weather past 2 weeks in Basse-Terre, Guadeloupe

Now
79 °F

Passing clouds.


Feels Like: 82 °F
Forecast: 76 / 84 °F
Wind: 6 mph from East

Location: Le Raizet - Guadeloupe

Current Time: Aug 4, 2015 at 3:32:00 AM

Latest Report: Aug 4, 2015 at 3:00 AM


Visibility: N/A

Pressure: 30.01 "Hg

Humidity: 84%

Dew point: 73 °F

Location of Basse-TerreLocation

Historic Weather in Basse-Terre — Graph

°F

Basse-Terre temperature yesterday

Maximum temperature yesterday: 90 °F (at 11:30 AM)
Minimum temperature yesterday: 81 °F (at 12:00 AM)
Average temperature yesterday: 84 °F

Past Weeks' High & Low Weather Summary

 TemperatureHumidityPressure
High90 °F (Jul 21, 12:30 PM)100% (Aug 2, 3:00 AM)30.09 "Hg (Aug 2, 3:00 AM)
Low73 °F (Jul 22, 7:00 AM)41% (Jul 24, 1:30 PM)29.92 "Hg (Aug 1, 4:00 PM)
Average82 °F73%30.01 "Hg
* Reported Jul 20 2:00 AM — Aug 4 2:30 AM, Basse-Terre, Weather by CustomWeather, © 2015

Note: Actual official high and low records may vary slightly from our data, if they occured in-between our weather recording intervals... More about our weather records

Advertising

Basse-Terre weather history for previous 24 hours

 ConditionsComfort  
Time TempWeatherWind HumidityBarometerVisibility
2:30 AM
Tue, Aug 4
79 °FClear.7 mph79%30.01 "HgN/A
2:00 AM81 °FClear.8 mph79%30.01 "HgN/A
1:30 AM81 °FPassing clouds.7 mph79%30.01 "HgN/A
1:00 AM81 °FPassing clouds.8 mph79%30.01 "HgN/A
12:30 AM81 °FPassing clouds.12 mph79%30.01 "HgN/A
12:00 AM81 °FPassing clouds.9 mph79%30.04 "HgN/A
11:30 PM
Mon, Aug 3
81 °FPassing clouds.10 mph84%30.04 "HgN/A
11:00 PM81 °FPassing clouds.8 mph84%30.04 "HgN/A
10:30 PM81 °FLight rain. Passing clouds.7 mph84%30.04 "HgN/A
10:00 PM81 °FPassing clouds.6 mph79%30.04 "HgN/A
9:30 PM81 °FPassing clouds.7 mph79%30.04 "HgN/A
9:00 PM81 °FPassing clouds.6 mph79%30.01 "HgN/A
8:30 PM82 °FPassing clouds.6 mph74%30.01 "HgN/A
8:00 PM82 °FPassing clouds.7 mph74%30.01 "HgN/A
7:30 PM82 °FPassing clouds.7 mph74%30.01 "HgN/A
7:00 PM82 °FPassing clouds.9 mph74%29.98 "HgN/A
6:00 PM84 °FClear.12 mph66%29.98 "HgN/A
5:30 PM86 °FPassing clouds.15 mph59%29.95 "HgN/A
5:00 PM86 °FScattered clouds.15 mph59%29.95 "HgN/A
4:30 PM86 °FPartly sunny.15 mph59%29.95 "HgN/A
4:00 PM88 °FPartly sunny.17 mph59%29.95 "HgN/A
3:30 PM90 °FPassing clouds.17 mph52%29.95 "HgN/A
3:00 PM88 °FPartly sunny.15 mph55%29.98 "HgN/A
2:30 PM88 °FOvercast.17 mph55%29.98 "HgN/A
2:00 PM88 °FMostly cloudy.17 mph55%29.98 "HgN/A
1:30 PM88 °FMostly cloudy.20 mph55%29.98 "HgN/A
1:00 PM90 °FMostly cloudy.20 mph49%29.98 "HgN/A
12:30 PM90 °FPassing clouds.21 mph49%30.01 "HgN/A
12:00 PM90 °FScattered clouds.21 mph49%30.01 "HgN/A
11:30 AM90 °FScattered clouds.21 mph52%30.01 "HgN/A
11:00 AM88 °FBroken clouds.18 mph55%30.01 "HgN/A
10:30 AM86 °FPartly sunny.16 mph59%30.01 "HgN/A
10:00 AM88 °FScattered clouds.18 mph52%30.01 "HgN/A
9:30 AM86 °FPartly sunny.17 mph62%30.01 "HgN/A
9:00 AM86 °FScattered clouds.20 mph62%30.01 "HgN/A
8:30 AM86 °FClear.17 mph62%29.98 "HgN/A
8:00 AM84 °FClear.17 mph66%29.98 "HgN/A
7:30 AM84 °FPassing clouds.17 mph66%29.98 "HgN/A
7:00 AM82 °FPassing clouds.14 mph70%29.98 "HgN/A
6:30 AM81 °FPassing clouds.12 mph74%29.98 "HgN/A
6:00 AM81 °FScattered clouds.12 mph79%29.98 "HgN/A
5:30 AM81 °FPassing clouds.9 mph79%29.95 "HgN/A
5:00 AM81 °FPartly cloudy.10 mph79%29.95 "HgN/A
4:30 AM81 °FPartly cloudy.10 mph79%29.95 "HgN/A
4:00 AM81 °FMostly cloudy.9 mph79%29.95 "HgN/A
3:30 AM81 °FPartly cloudy.10 mph79%29.95 "HgN/A
3:00 AM81 °FOvercast.9 mph79%29.95 "HgN/A
Weather by CustomWeather, © 2015

See weather overviewHow to use our weather pages